Location: Gro�wechsungen
(51.4926°N, 10.6901°E)
Time: 19:00:17
(UTC+00:00)

NOSS 3-2 (A) - Visible Passes

Search period start: 26 January 2021 00:00
Search period end: 05 February 2021 00:00
Orbit: 789 x 1419 km, 63.4° (Epoch: 22 January)

Date Brightness Start Highest point End Pass type
(mag) Time Alt. Az. Time Alt. Az. Time Alt. Az.
26 Jan 5.2 03:57:04 10° S 04:01:48 28° ESE 04:07:05 10° ENE visible
26 Jan 3.4 05:46:07 10° SW 05:51:57 75° NW 05:58:46 10° NE visible
27 Jan 5.7 03:13:17 10° SSE 03:16:55 17° ESE 03:20:49 10° ENE visible
27 Jan 3.5 05:00:47 10° SW 05:06:31 79° SE 05:13:13 10° NE visible
28 Jan 4.0 04:17:23 20° SSW 04:21:15 53° ESE 04:27:37 10° NE visible
28 Jan 3.8 06:06:26 10° WSW 06:12:14 49° NNW 06:18:59 10° NE visible
29 Jan 4.7 03:34:06 27° SSE 03:36:08 35° ESE 03:41:53 10° NE visible
29 Jan 3.5 05:21:32 14° WSW 05:26:34 64° NW 05:33:24 10° NE visible
30 Jan 5.2 02:50:40 22° ESE 02:51:10 22° ESE 02:55:53 10° ENE visible
30 Jan 3.4 04:38:05 32° SW 04:41:04 87° NW 04:47:51 10° NE visible
31 Jan 5.9 02:07:05 13° E 02:07:05 13° E 02:09:12 10° ENE visible
31 Jan 3.6 03:54:30 54° S 03:55:42 66° SE 04:02:17 10° NE visible
31 Jan 4.0 05:41:55 14° W 05:46:57 44° NNW 05:53:39 10° NE visible
01 Feb 4.3 03:10:50 43° ESE 03:10:50 43° ESE 03:16:37 10° NE visible
01 Feb 3.7 04:58:15 29° W 05:01:13 55° NW 05:08:02 10° NE visible
02 Feb 5.2 02:27:05 25° E 02:27:05 25° E 02:30:48 10° ENE visible
02 Feb 3.3 04:14:29 59° WSW 04:15:38 74° NW 04:22:28 10° NE visible
02 Feb 4.5 06:01:55 10° W 06:07:36 34° NNW 06:14:06 10° NE visible
03 Feb 6.0 01:43:17 14° ENE 01:43:17 14° ENE 01:44:34 10° ENE visible
03 Feb 3.5 03:30:41 74° E 03:30:41 74° E 03:36:55 10° NE visible
03 Feb 4.2 05:18:04 21° W 05:21:43 40° NNW 05:28:20 10° NE visible
04 Feb 4.6 02:46:49 40° ENE 02:46:49 40° ENE 02:51:19 10° NE visible
04 Feb 3.8 04:34:12 39° WNW 04:35:56 49° NNW 04:42:40 10° NE visible
